Fullerton, CA

7:22 AM PST on January 22, 2018 (GMT -0800)
Fullerton Municipal

Weather History for KFUL - March, 2013

Change the Weather History Date:

Monday, March 4, 2013

  Actual Average Record
Temperature  
Mean Temperature 65 °F 59 °F  
Max Temperature 71 °F 69 °F 95 °F (2012)
Min Temperature 58 °F 50 °F 41 °F (2006)
Degree Days  
Heating Degree Days 0 6  
Month to date heating degree days 1 24  
Since 1 July heating degree days 672 946  
Cooling Degree Days 0 1  
Month to date cooling degree days 11 1  
Year to date cooling degree days 23 10  
Growing Degree Days 14 (Base 50)    
Moisture  
Dew Point 50 °F    
Average Humidity 62    
Maximum Humidity 80    
Minimum Humidity 44    
Precipitation  
Precipitation 0.00 in 0.15 in 0.20 in (2005)
Month to date precipitation 0.00 0.62  
Year to date precipitation 1.40 6.90  
Since 1 July precipitation 4.71  
Snow  
Snow 0.00 in - - ()
Month to date snowfall 0.0  
Year to date snowfall 0.0  
Snow Depth 0.00 in    
Sea Level Pressure  
Sea Level Pressure 30.05 in    
Wind  
Wind Speed 2 mph (SSW)    
Max Wind Speed 13 mph    
Max Gust Speed 18 mph    
Visibility 10 miles    
Events      
T = Trace of Precipitation, MM = Missing Value Source: NWS Daily Summary

Daily Weather History Graph

Daily Weather History Graph

Search for Another Location

Airport or City:

Trip Planner

Search our weather history database for the weather conditions in past years. The results will help you decide how hot, cold, wet, or windy it might be!

Date:

Astronomy

Mar. 04, 2013 Rise Set
Actual Time 6:16 AM PST 5:51 PM PST
Civil Twilight 5:51 AM PST 6:16 PM PST
Nautical Twilight 5:22 AM PST 6:45 PM PST
Astronomical Twilight 4:53 AM PST 7:14 PM PST
Moon 12:19 AM PST (3/4) 10:49 AM PST (3/4)
Length of Visible Light 12h 24m
Length of Day
11h 34m
Waning Gibbous, 51% of the Moon is Illuminated
Mar 4
Waning Gibbous
Mar 4
Last Quarter
Mar 11
New
Mar 19
First Quarter
Mar 27
Full

Hourly Weather History & Observations

Time (PST) Temp. Dew Point Humidity Pressure Visibility Wind Dir Wind Speed Gust Speed Precip Events Conditions
12:32 AM 57.2 °F 51.8 °F 82% 30.03 in 10.0 mi SW 3.5 mph - N/A   Overcast
12:53 AM 57.9 °F 50.0 °F 75% 30.03 in 10.0 mi SW 3.5 mph - N/A   Overcast
1:14 AM 57.2 °F 50.0 °F 77% 30.03 in 10.0 mi SSW 5.8 mph - N/A   Overcast
1:48 AM 57.2 °F 50.0 °F 77% 30.03 in 10.0 mi SSW 3.5 mph - N/A   Overcast
1:53 AM 57.9 °F 50.0 °F 75% 30.03 in 10.0 mi SSW 4.6 mph - N/A   Overcast
2:27 AM 57.2 °F 51.8 °F 82% 30.03 in 10.0 mi Calm Calm - N/A   Overcast
2:53 AM 57.9 °F 51.1 °F 78% 30.03 in 10.0 mi Calm Calm - N/A   Overcast
3:24 AM 57.2 °F 51.8 °F 82% 30.03 in 10.0 mi Calm Calm - N/A   Overcast
3:53 AM 57.9 °F 51.1 °F 78% 30.02 in 10.0 mi Calm Calm - N/A   Overcast
4:53 AM 57.9 °F 48.9 °F 72% 30.02 in 10.0 mi South 3.5 mph - N/A   Overcast
5:53 AM 59.0 °F 48.9 °F 69% 30.04 in 10.0 mi Calm Calm - N/A   Overcast
6:31 AM 57.2 °F 50.0 °F 77% 30.05 in 10.0 mi Calm Calm - N/A   Overcast
6:53 AM 57.9 °F 50.0 °F 75% 30.06 in 10.0 mi Calm Calm - N/A   Overcast
7:53 AM 59.0 °F 50.0 °F 72% 30.07 in 10.0 mi SSW 4.6 mph - N/A   Partly Cloudy
8:15 AM 60.8 °F 50.0 °F 68% 30.08 in 10.0 mi Calm Calm - N/A   Mostly Cloudy
8:23 AM 60.8 °F 50.0 °F 68% 30.09 in 10.0 mi SSW 3.5 mph - N/A   Overcast
8:53 AM 61.0 °F 50.0 °F 67% 30.08 in 10.0 mi Calm Calm - N/A   Overcast
9:22 AM 62.6 °F 50.0 °F 63% 30.09 in 10.0 mi Variable 3.5 mph - N/A   Partly Cloudy
9:53 AM 64.0 °F 50.0 °F 60% 30.09 in 10.0 mi Calm Calm - N/A   Mostly Cloudy
10:53 AM 64.0 °F 48.9 °F 58% 30.09 in - SSW 5.8 mph - N/A   Overcast
11:51 AM 64.4 °F 48.2 °F 56% 30.07 in 10.0 mi South 5.8 mph - N/A   Mostly Cloudy
11:53 AM 66.0 °F 48.0 °F 52% 30.07 in 10.0 mi South 6.9 mph - N/A   Mostly Cloudy
12:10 PM 66.2 °F 48.2 °F 52% 30.07 in 10.0 mi SSW 4.6 mph - N/A   Overcast
12:53 PM 66.9 °F 48.0 °F 51% 30.05 in 10.0 mi Calm Calm - N/A   Scattered Clouds
1:53 PM 70.0 °F 48.0 °F 46% 30.03 in 10.0 mi Calm Calm - N/A   Clear
2:53 PM 71.1 °F 48.0 °F 44% 30.01 in 10.0 mi Variable 3.5 mph - N/A   Clear
3:53 PM 66.0 °F 50.0 °F 56% 30.02 in 10.0 mi Variable 6.9 mph - N/A   Clear
4:53 PM 64.9 °F 50.0 °F 58% 30.02 in 10.0 mi SSW 6.9 mph - N/A   Clear
5:53 PM 62.1 °F 48.9 °F 62% 30.04 in 10.0 mi SSW 6.9 mph - N/A   Clear
6:53 PM 59.0 °F 50.0 °F 72% 30.06 in 10.0 mi South 3.5 mph - N/A   Clear
7:53 PM 59.0 °F 50.0 °F 72% 30.08 in 10.0 mi SW 3.5 mph - N/A   Clear
8:53 PM 57.9 °F 48.9 °F 72% 30.10 in 10.0 mi Calm Calm - N/A   Partly Cloudy
9:53 PM 57.0 °F 48.9 °F 74% 30.10 in 10.0 mi Calm Calm - N/A   Clear
11:53 PM 55.9 °F 48.9 °F 77% 30.09 in 9.0 mi Calm Calm - N/A   Clear